Regional Weather Roundup
Issued by NWS Little Rock, AR

Home | Current Version | Previous Version | Text Only | Print | Product List | Glossary Off
Versions: 1 2 3 4 5 6 7 8 9 10 11 12 13 14 15 16 17 18 19 20 21 22 23 24 25 26 27 28 29 30 31 32 33 34 35 36 37 38 39 40 41 42 43 44 45 46 47 48 49 50

000
ASUS44 KLZK 231705
RWRLZK

WEATHER ROUNDUP FOR ARKANSAS
NATIONAL WEATHER SERVICE LITTLE ROCK AR
1100 AM CST THU FEB 23 2017

NOTE: "FAIR" INDICATES FEW OR NO CLOUDS BELOW 12,000 FEET WITH NO
SIGNIFICANT WEATHER AND/OR OBSTRUCTIONS TO VISIBILITY.

ARZ001-003-010-029-231800-
NORTHWEST ARKANSAS

CITY           SKY/WX    TMP DP  RH WIND       PRES   REMARKS
FAYETTEVILLE   MOSUNNY   74  52  46 S18G24    29.61F
FORT SMITH     SUNNY     69  56  62 NE13      29.61F
HARRISON       MOSUNNY   69  54  58 S14       29.66F
BENTONVILLE    MOSUNNY   73  48  40 S13G21    29.61F
ROGERS         MOSUNNY   74  51  44 S15       29.60F
SILOAM SPGS    MOSUNNY   73  50  43 S18G29    29.58F
HIGHFILL       MOSUNNY   73  51  46 S17       29.59F
SPRINGDALE     SUNNY     73  50  43 S12G23    29.63F
$$

ARZ004-005-016-231800-
NORTH CENTRAL ARKANSAS

CITY           SKY/WX    TMP DP  RH WIND       PRES   REMARKS
BATESVILLE     MOSUNNY   66  55  68 SW8G20    29.75F
FLIPPIN        SUNNY     70  54  56 S7        29.65F
MTN HOME       MOSUNNY   68  56  65 S14       29.67F
$$

ARZ040-041-231800-
WEST CENTRAL ARKANSAS

CITY           SKY/WX    TMP DP  RH WIND       PRES   REMARKS
MENA           SUNNY     73  52  46 SW9       29.69F
MOUNT IDA      SUNNY     71  50  47 VRB6      29.68F
$$

ARZ009-017-025-026-028-231800-
NORTHEAST ARKANSAS

CITY           SKY/WX    TMP DP  RH WIND       PRES   REMARKS
CORNING        PTSUNNY   64  63  94 SW9       29.76F
JONESBORO      MOSUNNY   67  58  72 SW16      29.77F
NEWPORT        MOSUNNY   68  58  70 S16       29.76F
WALNUT RIDGE   MOSUNNY   64  55  72 S17G23    29.75F
BLYTHEVILLE    SUNNY     70  58  65 S14G20    29.78F
$$

ARZ022-023-033-042-044-231800-
CENTRAL ARKANSAS

CITY           SKY/WX    TMP DP  RH WIND       PRES   REMARKS
LITTLE ROCK    MOSUNNY   69  58  67 S17G23    29.75F
N LITTLE ROCK    N/A     67  58  74 S9        29.75F
JACKSONVILLE   SUNNY     66  63  90 S8        29.75F
SEARCY         MOSUNNY   67  62  84 MISG        N/A
HOT SPRINGS    SUNNY     69  54  58 S8        29.74F
RUSSELLVILLE   SUNNY     66  57  72 VRB5      29.70F
CLINTON        FAIR      68  59  73 S8G15     29.73F
$$

ARZ036-231800-
EAST ARKANSAS

CITY           SKY/WX    TMP DP  RH WIND       PRES   REMARKS
WEST MEMPHIS   SUNNY     69  60  73 S14       29.79S
$$

ARZ050-053-066-070-073-231800-
SOUTHWEST ARKANSAS

CITY           SKY/WX    TMP DP  RH WIND       PRES   REMARKS
ARKADELPHIA    FAIR      70  57  63 S13       29.75F
CAMDEN         SUNNY     73  54  49 S9        29.76F
TEXARKANA      SUNNY     72  51  47 S16G23    29.73F
EL DORADO      SUNNY     71  58  63 S12G20    29.77F
DE QUEEN       SUNNY     71  55  56 S8        29.68F
$$

ARZ056-057-069-231800-
SOUTHEAST ARKANSAS

CITY           SKY/WX    TMP DP  RH WIND       PRES   REMARKS
PINE BLUFF     SUNNY     70  58  65 S13       29.77F
STUTTGART      SUNNY     70  54  56 S17       29.78F
MONTICELLO     SUNNY     71  57  61 S12       29.79F

$$





USA.gov is the U.S. government's official web portal to all federal, state and local government web resources and services.